Home > Weather > Cúcuta > Past weeks

Flag for Colombia Past Weather in Cúcuta, Colombia — Yesterday and Last 2 Weeks

Now
77 °F

Drizzle. Broken clouds.


Feels Like: 79 °F
Forecast: 76 / 98 °F
Wind: 16 mph from Southwest

Location: Cucuta / Camilo Daza

Current Time: Jul 28, 2016 at 11:24:57 AM

Latest Report: Jul 28, 2016 at 11:00 AM


Visibility: N/A

Pressure: 29.93 "Hg

Humidity: 79%

Dew Point: 70 °F

Location of CúcutaLocation

Past Weather in Cúcuta — Graph

°F

Cúcuta Temperature Yesterday

Maximum temperature yesterday: 88 °F (at 10:00 AM)
Minimum temperature yesterday: 81 °F (at 5:00 AM)
Average temperature yesterday: 83 °F

High & Low Weather Summary for the Past Weeks

 TemperatureHumidityPressure
High95 °F (Jul 14, 12:00 PM)89% (Jul 15, 3:00 AM)29.99 "Hg (Jul 15, 3:00 AM)
Low73 °F (Jul 15, 3:00 AM)28% (Jul 20, 3:00 PM)29.77 "Hg (Jul 26, 4:00 PM)
Average84 °F58%29.90 "Hg
* Reported Jul 13 11:00 AM — Jul 28 10:00 AM, Cúcuta, Weather by CustomWeather, © 2016

Note: Actual official high and low records may vary slightly from our data, if they occured in-between our weather recording intervals... More about our weather records

Advertising

Cúcuta Weather History for the Previous 24 Hours

Scroll right to see more
 ConditionsComfort  
Time TempWeatherWind HumidityBarometerVisibility
10:00 AM
Thu, Jul 28
77 °FDrizzle. Broken clouds.21 mph79%29.95 "HgN/A
9:00 AM79 °FScattered showers. Partly sunny.21 mph65%29.94 "HgN/A
8:00 AM82 °FScattered showers. Partly sunny.17 mph58%29.91 "HgN/A
7:00 AM82 °FPartly sunny.17 mph58%29.88 "HgN/A
6:00 AM82 °FPartly sunny.14 mph55%29.87 "HgN/A
5:00 AM81 °FPassing clouds.20 mph58%29.85 "HgN/A
12:00 AM81 °FPartly cloudy.22 mph58%29.87 "HgN/A
11:00 PM
Wed, Jul 27
81 °FPassing clouds.24 mph58%29.89 "HgN/A
10:00 PM82 °FPassing clouds.18 mph55%29.88 "HgN/A
9:00 PM82 °FPassing clouds.25 mph55%29.86 "HgN/A
8:00 PM81 °FPassing clouds.23 mph58%29.85 "HgN/A
7:00 PM82 °FPassing clouds.21 mph55%29.84 "HgN/A
6:00 PM82 °FScattered clouds.28 mph55%29.81 "HgN/A
5:00 PM84 °FScattered clouds.23 mph51%29.78 "HgN/A
4:00 PM84 °FBroken clouds.18 mph51%29.80 "HgN/A
3:00 PM84 °FBroken clouds.28 mph51%29.82 "HgN/A
2:00 PM82 °FLight rain. Broken clouds.25 mph62%29.82 "HgN/A
1:00 PM86 °FBroken clouds.23 mph52%29.83 "HgN/A
12:00 PM84 °FPartly sunny.21 mph55%29.86 "HgN/A
11:00 AM86 °FScattered clouds.21 mph52%29.86 "HgN/A
Weather by CustomWeather, © 2016

See weather overviewHow to use our weather pages